| time (UTC) | temp C | wind direction | speed KPH | gust KPH | rain 1hr cm | rain 24hr cm | rain mn cm | humidity % | barometer mb |
| 20260508003605 | 17 | 135 | 0.0 | 3.2 | 0.00 | 0.00 | 0.00 | 63 | 1013.4 |
| 20260508003404 | 17 | 135 | 0.0 | 3.2 | 0.00 | 0.00 | 0.00 | 63 | 1013.5 |
| 20260508003205 | 17 | 135 | 0.0 | 3.2 | 0.00 | 0.00 | 0.00 | 63 | 1013.6 |
| 20260508003005 | 17 | 135 | 0.0 | 3.2 | 0.00 | 0.00 | 0.00 | 63 | 1013.5 |
| 20260508002804 | 17 | 135 | 0.0 | 3.2 | 0.00 | 0.00 | 0.00 | 63 | 1013.3 |
| 20260508002204 | 17 | 135 | 0.0 | 3.2 | 0.00 | 0.00 | 0.00 | 63 | 1013.5 |
| 20260508001805 | 17 | 100 | 0.0 | 4.8 | 0.00 | 0.00 | 0.00 | 64 | 1013.6 |
| 20260508001604 | 17 | 99 | 0.0 | 4.8 | 0.00 | 0.00 | 0.00 | 64 | 1013.5 |
| 20260508001404 | 17 | 100 | 0.0 | 4.8 | 0.00 | 0.00 | 0.00 | 64 | 1013.3 |
| 20260508001204 | 17 | 102 | 0.0 | 4.8 | 0.00 | 0.00 | 0.00 | 64 | 1013.5 |
| 20260508001005 | 17 | 114 | 0.0 | 3.2 | 0.00 | 0.00 | 0.00 | 63 | 1013.5 |
| 20260508000604 | 17 | 135 | 0.0 | 3.2 | 0.00 | 0.00 | 0.00 | 60 | 1013.7 |
| 20260508000205 | 17 | 135 | 0.0 | 3.2 | 0.00 | 0.00 | 0.00 | 60 | 1013.7 |
| 20260508000004 | 17 | 135 | 0.0 | 3.2 | 0.00 | 0.00 | 0.00 | 60 | 1013.6 |
| 20260507235604 | 17 | 135 | 0.0 | 1.6 | 0.00 | 0.00 | 0.00 | 60 | 1013.6 |
| 20260507235405 | 17 | 135 | 0.0 | 1.6 | 0.00 | 0.00 | 0.00 | 60 | 1013.6 |
| 20260507234804 | 17 | 120 | 0.0 | 1.6 | 0.00 | 0.00 | 0.00 | 58 | 1013.8 |
| 20260507234604 | 17 | 126 | 0.0 | 1.6 | 0.00 | 0.00 | 0.00 | 59 | 1014.1 |
| 20260507234405 | 17 | 141 | 0.0 | 3.2 | 0.00 | 0.00 | 0.00 | 58 | 1013.9 |
| 20260507234204 | 17 | 140 | 0.0 | 3.2 | 0.00 | 0.00 | 0.00 | 58 | 1014.1 |
| 20260507234004 | 17 | 147 | 0.0 | 3.2 | 0.00 | 0.00 | 0.00 | 57 | 1014.1 |
| 20260507233804 | 17 | 144 | 0.0 | 3.2 | 0.00 | 0.00 | 0.00 | 57 | 1014.1 |
| 20260507233604 | 17 | 139 | 0.0 | 3.2 | 0.00 | 0.00 | 0.00 | 57 | 1014.2 |
| 20260507233404 | 17 | 135 | 0.0 | 3.2 | 0.00 | 0.00 | 0.00 | 57 | 1014.2 |
| 20260507233204 | 17 | 135 | 0.0 | 3.2 | 0.00 | 0.00 | 0.00 | 57 | 1014.1 |
| 20260507233004 | 17 | 135 | 0.0 | 1.6 | 0.00 | 0.00 | 0.00 | 57 | 1014.2 |
| 20260507232804 | 17 | 135 | 0.0 | 1.6 | 0.00 | 0.00 | 0.00 | 57 | 1014.2 |
| 20260507232604 | 17 | 135 | 0.0 | 1.6 | 0.00 | 0.00 | 0.00 | 57 | 1014.2 |
| 20260507232404 | 17 | 135 | 0.0 | 1.6 | 0.00 | 0.00 | 0.00 | 56 | 1014.2 |
| 20260507232204 | 17 | 135 | 0.0 | 1.6 | 0.00 | 0.00 | 0.00 | 56 | 1014.2 |
| 20260507232004 | 17 | 135 | 0.0 | 1.6 | 0.00 | 0.00 | 0.00 | 56 | 1014.1 |
| 20260507231804 | 17 | 135 | 0.0 | 1.6 | 0.00 | 0.00 | 0.00 | 56 | 1014.1 |
| 20260507231604 | 17 | 135 | 0.0 | 3.2 | 0.00 | 0.00 | 0.00 | 56 | 1013.9 |
| 20260507231404 | 17 | 135 | 0.0 | 3.2 | 0.00 | 0.00 | 0.00 | 56 | 1013.9 |
| 20260507231204 | 17 | 135 | 0.0 | 3.2 | 0.00 | 0.00 | 0.00 | 56 | 1013.9 |
| 20260507230804 | 17 | 135 | 0.0 | 3.2 | 0.00 | 0.00 | 0.00 | 55 | 1013.9 |
| 20260507230604 | 17 | 135 | 0.0 | 3.2 | 0.00 | 0.00 | 0.00 | 55 | 1014.0 |
| 20260507230404 | 17 | 135 | 0.0 | 3.2 | 0.00 | 0.00 | 0.00 | 55 | 1014.1 |
| 20260507230204 | 17 | 135 | 0.0 | 3.2 | 0.00 | 0.00 | 0.00 | 55 | 1014.1 |
| 20260507230005 | 17 | 135 | 0.0 | 3.2 | 0.00 | 0.00 | 0.00 | 55 | 1014.1 |
| 20260507225804 | 17 | 135 | 0.0 | 3.2 | 0.00 | 0.00 | 0.00 | 55 | 1014.1 |
| 20260507225604 | 17 | 135 | 0.0 | 3.2 | 0.00 | 0.00 | 0.00 | 55 | 1014.3 |
| 20260507225404 | 17 | 135 | 0.0 | 3.2 | 0.00 | 0.00 | 0.00 | 55 | 1014.2 |
| 20260507225205 | 17 | 135 | 0.0 | 3.2 | 0.00 | 0.00 | 0.00 | 55 | 1014.1 |
| 20260507225004 | 17 | 135 | 0.0 | 3.2 | 0.00 | 0.00 | 0.00 | 54 | 1014.4 |
| 20260507224804 | 17 | 135 | 0.0 | 3.2 | 0.00 | 0.00 | 0.00 | 54 | 1014.2 |
| 20260507224605 | 17 | 135 | 0.0 | 3.2 | 0.00 | 0.00 | 0.00 | 54 | 1014.3 |
| 20260507224404 | 17 | 135 | 0.0 | 3.2 | 0.00 | 0.00 | 0.00 | 54 | 1014.3 |
| 20260507224204 | 18 | 135 | 0.0 | 3.2 | 0.00 | 0.00 | 0.00 | 54 | 1014.3 |
| 20260507224004 | 18 | 135 | 0.0 | 3.2 | 0.00 | 0.00 | 0.00 | 55 | 1014.3 |
| 20260507223604 | 18 | 140 | 0.0 | 3.2 | 0.00 | 0.00 | 0.00 | 54 | 1014.4 |
| 20260507223404 | 17 | 141 | 0.0 | 3.2 | 0.00 | 0.00 | 0.00 | 55 | 1014.4 |
| 20260507223204 | 18 | 136 | 0.0 | 3.2 | 0.00 | 0.00 | 0.00 | 54 | 1014.3 |
| 20260507223004 | 17 | 139 | 0.0 | 3.2 | 0.00 | 0.00 | 0.00 | 54 | 1014.4 |
| 20260507222804 | 18 | 125 | 0.0 | 3.2 | 0.00 | 0.00 | 0.00 | 54 | 1014.4 |
| 20260507222604 | 18 | 114 | 0.0 | 4.8 | 0.00 | 0.00 | 0.00 | 54 | 1014.3 |
| 20260507222404 | 18 | 112 | 0.0 | 4.8 | 0.00 | 0.00 | 0.00 | 54 | 1014.4 |
| 20260507222204 | 18 | 105 | 0.0 | 4.8 | 0.00 | 0.00 | 0.00 | 54 | 1014.3 |
| 20260507222004 | 18 | 103 | 0.0 | 4.8 | 0.00 | 0.00 | 0.00 | 55 | 1014.3 |
| 20260507221804 | 18 | 107 | 0.0 | 4.8 | 0.00 | 0.00 | 0.00 | 55 | 1014.5 |
| 20260507221604 | 18 | 111 | 0.0 | 4.8 | 0.00 | 0.00 | 0.00 | 54 | 1014.4 |
| 20260507221404 | 17 | 103 | 0.0 | 4.8 | 0.00 | 0.00 | 0.00 | 54 | 1014.2 |
| 20260507221204 | 17 | 103 | 0.0 | 3.2 | 0.00 | 0.00 | 0.00 | 53 | 1014.6 |
| 20260507221004 | 18 | 99 | 0.0 | 3.2 | 0.00 | 0.00 | 0.00 | 53 | 1014.4 |
| 20260507220804 | 18 | 91 | 0.0 | 3.2 | 0.00 | 0.00 | 0.00 | 53 | 1014.5 |
| 20260507220604 | 18 | 90 | 0.0 | 3.2 | 0.00 | 0.00 | 0.00 | 53 | 1014.7 |
| 20260507220404 | 18 | 90 | 0.0 | 3.2 | 0.00 | 0.00 | 0.00 | 53 | 1014.5 |
| 20260507220004 | 18 | 90 | 0.0 | 3.2 | 0.00 | 0.00 | 0.00 | 53 | 1014.4 |
| 20260507215804 | 18 | 90 | 0.0 | 1.6 | 0.00 | 0.00 | 0.00 | 53 | 1014.6 |
| 20260507215604 | 18 | 90 | 0.0 | 3.2 | 0.00 | 0.00 | 0.00 | 53 | 1014.7 |
| 20260507215404 | 18 | 90 | 0.0 | 3.2 | 0.00 | 0.00 | 0.00 | 53 | 1014.7 |
| 20260507215004 | 18 | 90 | 0.0 | 3.2 | 0.00 | 0.00 | 0.00 | 53 | 1014.6 |
| 20260507214804 | 18 | 90 | 0.0 | 3.2 | 0.00 | 0.00 | 0.00 | 53 | 1014.8 |
| 20260507214404 | 18 | 92 | 0.0 | 3.2 | 0.00 | 0.00 | 0.00 | 53 | 1014.9 |
| 20260507214204 | 18 | 100 | 0.0 | 3.2 | 0.00 | 0.00 | 0.00 | 53 | 1014.8 |
| 20260507213804 | 18 | 122 | 0.0 | 3.2 | 0.00 | 0.00 | 0.00 | 53 | 1014.7 |
| 20260507213604 | 18 | 123 | 0.0 | 3.2 | 0.00 | 0.00 | 0.00 | 52 | 1014.5 |
| 20260507213404 | 18 | 131 | 0.0 | 3.2 | 0.00 | 0.00 | 0.00 | 52 | 1014.9 |
| 20260507213204 | 18 | 123 | 0.0 | 3.2 | 0.00 | 0.00 | 0.00 | 52 | 1014.8 |
| 20260507213005 | 18 | 121 | 0.0 | 3.2 | 0.00 | 0.00 | 0.00 | 53 | 1014.8 |
| 20260507212804 | 18 | 99 | 0.0 | 3.2 | 0.00 | 0.00 | 0.00 | 53 | 1015.0 |
| 20260507212604 | 18 | 99 | 0.0 | 4.8 | 0.00 | 0.00 | 0.00 | 53 | 1014.8 |
| 20260507212404 | 18 | 93 | 0.0 | 4.8 | 0.00 | 0.00 | 0.00 | 53 | 1014.8 |
| 20260507212204 | 18 | 98 | 0.0 | 4.8 | 0.00 | 0.00 | 0.00 | 52 | 1014.8 |
| 20260507212004 | 18 | 87 | 0.0 | 4.8 | 0.00 | 0.00 | 0.00 | 52 | 1014.8 |
| 20260507211805 | 18 | 102 | 0.0 | 4.8 | 0.00 | 0.00 | 0.00 | 52 | 1014.8 |
| 20260507211604 | 18 | 138 | 0.0 | 3.2 | 0.00 | 0.00 | 0.00 | 52 | 1014.8 |
| 20260507211404 | 18 | 248 | 0.0 | 3.2 | 0.00 | 0.00 | 0.00 | 52 | 1014.9 |
| 20260507211205 | 18 | 0 | 0.0 | 0.0 | 0.00 | 0.00 | 0.00 | 52 | 1014.8 |
| 20260507210604 | 18 | 0 | 0.0 | 0.0 | 0.00 | 0.00 | 0.00 | 51 | 1014.8 |
| 20260507210404 | 18 | 0 | 0.0 | 0.0 | 0.00 | 0.00 | 0.00 | 51 | 1014.8 |
| 20260507210204 | 18 | 0 | 0.0 | 0.0 | 0.00 | 0.00 | 0.00 | 51 | 1014.9 |
| 20260507210006 | 18 | 0 | 0.0 | 0.0 | 0.00 | 0.00 | 0.00 | 51 | 1014.8 |
| 20260507205804 | 18 | 248 | 0.0 | 1.6 | 0.00 | 0.00 | 0.00 | 51 | 1014.9 |
| 20260507205204 | 18 | 248 | 0.0 | 1.6 | 0.00 | 0.00 | 0.00 | 51 | 1014.8 |
| 20260507205005 | 18 | 248 | 0.0 | 1.6 | 0.00 | 0.00 | 0.00 | 51 | 1014.7 |
| 20260507204804 | 18 | 0 | 0.0 | 0.0 | 0.00 | 0.00 | 0.00 | 51 | 1014.6 |
| 20260507204604 | 18 | 0 | 0.0 | 0.0 | 0.00 | 0.00 | 0.00 | 50 | 1014.7 |
| 20260507204204 | 18 | 248 | 0.0 | 3.2 | 0.00 | 0.00 | 0.00 | 50 | 1014.9 |
| 20260507203604 | 18 | 248 | 0.0 | 3.2 | 0.00 | 0.00 | 0.00 | 51 | 1014.9 |
| 20260507203204 | 18 | 248 | 0.0 | 3.2 | 0.00 | 0.00 | 0.00 | 49 | 1014.9 |
| 20260507202805 | 18 | 248 | 0.0 | 3.2 | 0.00 | 0.00 | 0.00 | 49 | 1014.8 |
| 20260507202604 | 18 | 249 | 0.0 | 3.2 | 0.00 | 0.00 | 0.00 | 49 | 1014.7 |
| 20260507202204 | 19 | 236 | 0.0 | 3.2 | 0.00 | 0.00 | 0.00 | 49 | 1014.7 |
| 20260507202005 | 18 | 228 | 0.0 | 3.2 | 0.00 | 0.00 | 0.00 | 49 | 1014.7 |
| 20260507201804 | 18 | 231 | 0.0 | 3.2 | 0.00 | 0.00 | 0.00 | 49 | 1014.8 |
| 20260507201604 | 19 | 235 | 0.0 | 4.8 | 0.00 | 0.00 | 0.00 | 49 | 1014.8 |
| 20260507201405 | 19 | 238 | 0.0 | 4.8 | 0.00 | 0.00 | 0.00 | 49 | 1015.0 |
| 20260507201205 | 18 | 245 | 0.0 | 4.8 | 0.00 | 0.00 | 0.00 | 49 | 1014.7 |
| 20260507201004 | 19 | 249 | 1.6 | 4.8 | 0.00 | 0.00 | 0.00 | 49 | 1014.7 |
| 20260507200804 | 19 | 246 | 0.0 | 4.8 | 0.00 | 0.00 | 0.00 | 49 | 1014.7 |
| 20260507200604 | 19 | 248 | 0.0 | 4.8 | 0.00 | 0.00 | 0.00 | 49 | 1014.7 |
| 20260507200405 | 19 | 247 | 0.0 | 4.8 | 0.00 | 0.00 | 0.00 | 49 | 1014.8 |
| 20260507200204 | 19 | 243 | 0.0 | 4.8 | 0.00 | 0.00 | 0.00 | 49 | 1014.6 |
| 20260507200005 | 19 | 220 | 0.0 | 3.2 | 0.00 | 0.00 | 0.00 | 49 | 1014.8 |
| 20260507195805 | 19 | 217 | 0.0 | 4.8 | 0.00 | 0.00 | 0.00 | 49 | 1014.5 |
| 20260507195604 | 19 | 219 | 1.6 | 4.8 | 0.00 | 0.00 | 0.00 | 49 | 1014.6 |
| 20260507195404 | 18 | 220 | 1.6 | 4.8 | 0.00 | 0.00 | 0.00 | 49 | 1014.6 |
| 20260507195204 | 19 | 218 | 1.6 | 4.8 | 0.00 | 0.00 | 0.00 | 49 | 1014.7 |
| 20260507195005 | 19 | 228 | 1.6 | 4.8 | 0.00 | 0.00 | 0.00 | 49 | 1014.7 |
| 20260507194805 | 18 | 235 | 1.6 | 4.8 | 0.00 | 0.00 | 0.00 | 49 | 1014.6 |
| 20260507194404 | 18 | 43 | 0.0 | 4.8 | 0.00 | 0.00 | 0.00 | 49 | 1014.7 |
| 20260507194004 | 18 | 35 | 0.0 | 4.8 | 0.00 | 0.00 | 0.00 | 50 | 1014.5 |
| 20260507193405 | 19 | 53 | 0.0 | 3.2 | 0.00 | 0.00 | 0.00 | 49 | 1014.5 |
| 20260507193204 | 18 | 61 | 0.0 | 3.2 | 0.00 | 0.00 | 0.00 | 49 | 1014.4 |
| 20260507193005 | 18 | 80 | 0.0 | 3.2 | 0.00 | 0.00 | 0.00 | 49 | 1014.5 |
| 20260507192805 | 18 | 77 | 0.0 | 3.2 | 0.00 | 0.00 | 0.00 | 49 | 1014.6 |
| 20260507192604 | 18 | 81 | 0.0 | 3.2 | 0.00 | 0.00 | 0.00 | 48 | 1014.7 |
| 20260507192405 | 19 | 81 | 0.0 | 3.2 | 0.00 | 0.00 | 0.00 | 49 | 1014.6 |
| 20260507192204 | 18 | 120 | 0.0 | 3.2 | 0.00 | 0.00 | 0.00 | 48 | 1014.6 |
| 20260507192005 | 19 | 135 | 0.0 | 3.2 | 0.00 | 0.00 | 0.00 | 49 | 1014.3 |
| 20260507191804 | 18 | 135 | 0.0 | 3.2 | 0.00 | 0.00 | 0.00 | 49 | 1014.7 |
| 20260507191605 | 18 | 123 | 0.0 | 3.2 | 0.00 | 0.00 | 0.00 | 49 | 1014.3 |
| 20260507191205 | 19 | 94 | 0.0 | 3.2 | 0.00 | 0.00 | 0.00 | 49 | 1014.5 |
| 20260507191004 | 19 | 99 | 1.6 | 3.2 | 0.00 | 0.00 | 0.00 | 49 | 1014.6 |
| 20260507190604 | 19 | 102 | 0.0 | 3.2 | 0.00 | 0.00 | 0.00 | 50 | 1014.3 |
| 20260507190405 | 19 | 123 | 0.0 | 4.8 | 0.00 | 0.00 | 0.00 | 49 | 1014.5 |
| 20260507185804 | 19 | 82 | 0.0 | 6.4 | 0.00 | 0.00 | 0.00 | 50 | 1014.4 |
| 20260507185604 | 19 | 59 | 1.6 | 6.4 | 0.00 | 0.00 | 0.00 | 50 | 1014.7 |
| 20260507185004 | 19 | 47 | 0.0 | 6.4 | 0.00 | 0.00 | 0.00 | 50 | 1014.6 |
| 20260507184804 | 19 | 56 | 0.0 | 6.4 | 0.00 | 0.00 | 0.00 | 51 | 1014.6 |
| 20260507184404 | 19 | 77 | 0.0 | 3.2 | 0.00 | 0.00 | 0.00 | 50 | 1014.6 |
| 20260507184204 | 19 | 79 | 0.0 | 4.8 | 0.00 | 0.00 | 0.00 | 50 | 1014.7 |
| 20260507183604 | 20 | 13 | 0.0 | 4.8 | 0.00 | 0.00 | 0.00 | 50 | 1014.4 |
| 20260507183405 | 20 | 8 | 0.0 | 4.8 | 0.00 | 0.00 | 0.00 | 49 | 1014.5 |
| 20260507183204 | 20 | 351 | 0.0 | 4.8 | 0.00 | 0.00 | 0.00 | 49 | 1014.3 |
| 20260507182804 | 20 | 194 | 0.0 | 3.2 | 0.00 | 0.00 | 0.00 | 49 | 1014.5 |
| 20260507182604 | 20 | 148 | 0.0 | 3.2 | 0.00 | 0.00 | 0.00 | 49 | 1014.4 |
| 20260507182405 | 20 | 92 | 0.0 | 3.2 | 0.00 | 0.00 | 0.00 | 48 | 1014.3 |
| 20260507182204 | 20 | 92 | 0.0 | 3.2 | 0.00 | 0.00 | 0.00 | 48 | 1014.3 |
| 20260507182005 | 20 | 89 | 0.0 | 3.2 | 0.00 | 0.00 | 0.00 | 49 | 1014.3 |
| 20260507181804 | 20 | 90 | 0.0 | 3.2 | 0.00 | 0.00 | 0.00 | 48 | 1014.2 |
| 20260507181604 | 20 | 93 | 0.0 | 3.2 | 0.00 | 0.00 | 0.00 | 49 | 1014.3 |
| 20260507181004 | 20 | 104 | 0.0 | 3.2 | 0.00 | 0.00 | 0.00 | 48 | 1014.4 |
| 20260507180804 | 20 | 106 | 0.0 | 4.8 | 0.00 | 0.00 | 0.00 | 48 | 1014.5 |
| 20260507180604 | 20 | 104 | 0.0 | 4.8 | 0.00 | 0.00 | 0.00 | 49 | 1014.5 |
| 20260507180404 | 20 | 104 | 0.0 | 4.8 | 0.00 | 0.00 | 0.00 | 49 | 1014.2 |
| 20260507180204 | 20 | 102 | 0.0 | 4.8 | 0.00 | 0.00 | 0.00 | 49 | 1014.3 |
| 20260507180004 | 20 | 108 | 0.0 | 4.8 | 0.00 | 0.00 | 0.00 | 49 | 1014.1 |
| 20260507175804 | 20 | 106 | 0.0 | 4.8 | 0.00 | 0.00 | 0.00 | 49 | 1014.3 |
| 20260507175604 | 20 | 106 | 0.0 | 4.8 | 0.00 | 0.00 | 0.00 | 49 | 1014.3 |
| 20260507175404 | 20 | 125 | 0.0 | 4.8 | 0.00 | 0.00 | 0.00 | 49 | 1014.2 |
| 20260507175204 | 20 | 135 | 0.0 | 3.2 | 0.00 | 0.00 | 0.00 | 49 | 1014.3 |
| 20260507175004 | 20 | 152 | 0.0 | 4.8 | 0.00 | 0.00 | 0.00 | 49 | 1014.2 |
| 20260507174605 | 20 | 151 | 0.0 | 6.4 | 0.00 | 0.00 | 0.00 | 49 | 1014.2 |
| 20260507174204 | 20 | 219 | 0.0 | 6.4 | 0.00 | 0.00 | 0.00 | 49 | 1014.1 |
| 20260507174004 | 20 | 345 | 1.6 | 9.7 | 0.00 | 0.00 | 0.00 | 48 | 1014.2 |
| 20260507173804 | 20 | 343 | 1.6 | 9.7 | 0.00 | 0.00 | 0.00 | 49 | 1014.3 |
| 20260507173604 | 20 | 353 | 1.6 | 9.7 | 0.00 | 0.00 | 0.00 | 50 | 1014.5 |
| 20260507173405 | 20 | 334 | 3.2 | 9.7 | 0.00 | 0.00 | 0.00 | 50 | 1014.3 |
| 20260507173005 | 20 | 328 | 1.6 | 8.0 | 0.00 | 0.00 | 0.00 | 50 | 1014.2 |
| 20260507172804 | 20 | 320 | 1.6 | 6.4 | 0.00 | 0.00 | 0.00 | 51 | 1014.3 |
| 20260507172604 | 20 | 317 | 1.6 | 6.4 | 0.00 | 0.00 | 0.00 | 51 | 1014.2 |
| 20260507172404 | 20 | 316 | 1.6 | 6.4 | 0.00 | 0.00 | 0.00 | 51 | 1014.2 |
| 20260507172204 | 20 | 320 | 3.2 | 8.0 | 0.00 | 0.00 | 0.00 | 51 | 1014.2 |
| 20260507172005 | 20 | 305 | 3.2 | 8.0 | 0.00 | 0.00 | 0.00 | 51 | 1014.2 |
| 20260507171804 | 20 | 302 | 3.2 | 8.0 | 0.00 | 0.00 | 0.00 | 51 | 1014.1 |
| 20260507171605 | 20 | 305 | 3.2 | 11.3 | 0.00 | 0.00 | 0.00 | 50 | 1014.2 |
| 20260507171404 | 20 | 315 | 4.8 | 11.3 | 0.00 | 0.00 | 0.00 | 50 | 1014.0 |
| 20260507171205 | 20 | 310 | 3.2 | 11.3 | 0.00 | 0.00 | 0.00 | 50 | 1014.1 |
| 20260507171004 | 20 | 305 | 3.2 | 11.3 | 0.00 | 0.00 | 0.00 | 50 | 1014.1 |
| 20260507170604 | 21 | 293 | 3.2 | 9.7 | 0.00 | 0.00 | 0.00 | 48 | 1013.9 |
| 20260507170404 | 21 | 279 | 3.2 | 8.0 | 0.00 | 0.00 | 0.00 | 48 | 1013.8 |
| 20260507170204 | 21 | 275 | 3.2 | 8.0 | 0.00 | 0.00 | 0.00 | 47 | 1013.6 |
| 20260507170005 | 21 | 271 | 3.2 | 8.0 | 0.00 | 0.00 | 0.00 | 47 | 1013.8 |
| 20260507165804 | 21 | 263 | 1.6 | 8.0 | 0.00 | 0.00 | 0.00 | 46 | 1013.7 |
| 20260507165604 | 21 | 239 | 1.6 | 6.4 | 0.00 | 0.00 | 0.00 | 45 | 1013.7 |
| 20260507165404 | 21 | 233 | 1.6 | 6.4 | 0.00 | 0.00 | 0.00 | 45 | 1013.8 |
| 20260507165205 | 21 | 201 | 0.0 | 4.8 | 0.00 | 0.00 | 0.00 | 44 | 1013.4 |
| 20260507165004 | 21 | 118 | 0.0 | 4.8 | 0.00 | 0.00 | 0.00 | 44 | 1013.5 |
| 20260507164805 | 21 | 60 | 0.0 | 4.8 | 0.00 | 0.00 | 0.00 | 43 | 1013.2 |
| 20260507164604 | 21 | 44 | 0.0 | 4.8 | 0.00 | 0.00 | 0.00 | 43 | 1013.3 |
| 20260507164204 | 21 | 56 | 1.6 | 6.4 | 0.00 | 0.00 | 0.00 | 42 | 1013.4 |
| 20260507164005 | 21 | 74 | 1.6 | 6.4 | 0.00 | 0.00 | 0.00 | 42 | 1013.4 |
| 20260507163604 | 22 | 107 | 1.6 | 6.4 | 0.00 | 0.00 | 0.00 | 40 | 1013.3 |
| 20260507163404 | 22 | 123 | 0.0 | 6.4 | 0.00 | 0.00 | 0.00 | 38 | 1013.6 |
| 20260507162804 | 22 | 68 | 1.6 | 6.4 | 0.00 | 0.00 | 0.00 | 35 | 1013.6 |
| 20260507162404 | 22 | 59 | 1.6 | 6.4 | 0.00 | 0.00 | 0.00 | 33 | 1013.8 |
| 20260507162204 | 22 | 57 | 1.6 | 6.4 | 0.00 | 0.00 | 0.00 | 31 | 1013.7 |
| 20260507162004 | 22 | 64 | 1.6 | 6.4 | 0.00 | 0.00 | 0.00 | 31 | 1013.8 |
| 20260507161804 | 22 | 94 | 0.0 | 6.4 | 0.00 | 0.00 | 0.00 | 26 | 1013.8 |
| 20260507161604 | 23 | 100 | 0.0 | 4.8 | 0.00 | 0.00 | 0.00 | 24 | 1013.8 |
| 20260507161204 | 23 | 117 | 0.0 | 4.8 | 0.00 | 0.00 | 0.00 | 25 | 1013.7 |
| 20260507161005 | 23 | 104 | 0.0 | 4.8 | 0.00 | 0.00 | 0.00 | 24 | 1013.8 |
| 20260507160804 | 23 | 110 | 0.0 | 4.8 | 0.00 | 0.00 | 0.00 | 23 | 1013.6 |
| 20260507160604 | 23 | 124 | 0.0 | 4.8 | 0.00 | 0.00 | 0.00 | 24 | 1013.7 |
| 20260507160404 | 23 | 118 | 0.0 | 4.8 | 0.00 | 0.00 | 0.00 | 24 | 1013.7 |
| 20260507160204 | 23 | 131 | 0.0 | 4.8 | 0.00 | 0.00 | 0.00 | 25 | 1013.6 |
| 20260507160004 | 23 | 206 | 1.6 | 6.4 | 0.00 | 0.00 | 0.00 | 24 | 1013.5 |
| 20260507155804 | 23 | 224 | 1.6 | 12.9 | 0.00 | 0.00 | 0.00 | 25 | 1013.5 |
| 20260507155604 | 23 | 220 | 3.2 | 12.9 | 0.00 | 0.00 | 0.00 | 25 | 1013.6 |
| 20260507155404 | 22 | 223 | 4.8 | 12.9 | 0.00 | 0.00 | 0.00 | 25 | 1013.6 |
| 20260507155204 | 22 | 229 | 6.4 | 16.1 | 0.00 | 0.00 | 0.00 | 25 | 1013.7 |
| 20260507155004 | 23 | 229 | 6.4 | 16.1 | 0.00 | 0.00 | 0.00 | 24 | 1013.8 |
| 20260507154804 | 23 | 241 | 8.0 | 16.1 | 0.00 | 0.00 | 0.00 | 24 | 1013.8 |
| 20260507154604 | 23 | 249 | 8.0 | 17.7 | 0.00 | 0.00 | 0.00 | 23 | 1013.8 |
| 20260507154405 | 23 | 259 | 8.0 | 17.7 | 0.00 | 0.00 | 0.00 | 23 | 1013.8 |
| 20260507154204 | 23 | 257 | 8.0 | 17.7 | 0.00 | 0.00 | 0.00 | 23 | 1013.8 |
| 20260507154004 | 23 | 254 | 8.0 | 17.7 | 0.00 | 0.00 | 0.00 | 23 | 1014.0 |
| 20260507153804 | 23 | 244 | 6.4 | 17.7 | 0.00 | 0.00 | 0.00 | 23 | 1013.9 |
| 20260507153604 | 24 | 244 | 6.4 | 16.1 | 0.00 | 0.00 | 0.00 | 22 | 1013.8 |
| 20260507153205 | 24 | 243 | 8.0 | 17.7 | 0.00 | 0.00 | 0.00 | 22 | 1013.9 |
| 20260507153004 | 24 | 248 | 8.0 | 17.7 | 0.00 | 0.00 | 0.00 | 23 | 1013.8 |
| 20260507152805 | 24 | 250 | 8.0 | 17.7 | 0.00 | 0.00 | 0.00 | 23 | 1013.9 |
| 20260507152604 | 24 | 251 | 9.7 | 19.3 | 0.00 | 0.00 | 0.00 | 23 | 1014.1 |
| 20260507152404 | 24 | 251 | 8.0 | 19.3 | 0.00 | 0.00 | 0.00 | 23 | 1013.9 |
| 20260507152204 | 24 | 251 | 8.0 | 19.3 | 0.00 | 0.00 | 0.00 | 23 | 1014.2 |
| 20260507152004 | 24 | 254 | 8.0 | 19.3 | 0.00 | 0.00 | 0.00 | 22 | 1014.0 |
| 20260507151805 | 24 | 253 | 8.0 | 19.3 | 0.00 | 0.00 | 0.00 | 23 | 1013.9 |
| 20260507151604 | 24 | 253 | 8.0 | 17.7 | 0.00 | 0.00 | 0.00 | 24 | 1014.0 |
| 20260507151404 | 24 | 252 | 8.0 | 17.7 | 0.00 | 0.00 | 0.00 | 24 | 1014.0 |
| 20260507151204 | 24 | 246 | 8.0 | 17.7 | 0.00 | 0.00 | 0.00 | 24 | 1014.0 |
| 20260507151004 | 23 | 247 | 9.7 | 17.7 | 0.00 | 0.00 | 0.00 | 25 | 1014.0 |
| 20260507150804 | 23 | 247 | 11.3 | 20.9 | 0.00 | 0.00 | 0.00 | 25 | 1014.0 |
| 20260507150604 | 23 | 249 | 11.3 | 20.9 | 0.00 | 0.00 | 0.00 | 25 | 1014.0 |
| 20260507150204 | 23 | 254 | 12.9 | 20.9 | 0.00 | 0.00 | 0.00 | 25 | 1014.0 |
| 20260507150005 | 23 | 253 | 11.3 | 20.9 | 0.00 | 0.00 | 0.00 | 25 | 1014.1 |
| 20260507145804 | 23 | 254 | 9.7 | 20.9 | 0.00 | 0.00 | 0.00 | 22 | 1014.0 |
| 20260507145604 | 24 | 255 | 9.7 | 19.3 | 0.00 | 0.00 | 0.00 | 23 | 1014.0 |
| 20260507145405 | 24 | 257 | 9.7 | 19.3 | 0.00 | 0.00 | 0.00 | 25 | 1014.0 |
| 20260507145204 | 24 | 258 | 9.7 | 19.3 | 0.00 | 0.00 | 0.00 | 25 | 1014.1 |
| 20260507145004 | 24 | 261 | 11.3 | 19.3 | 0.00 | 0.00 | 0.00 | 24 | 1013.9 |
| 20260507144804 | 24 | 260 | 11.3 | 19.3 | 0.00 | 0.00 | 0.00 | 24 | 1014.0 |
| 20260507144604 | 24 | 257 | 11.3 | 19.3 | 0.00 | 0.00 | 0.00 | 23 | 1013.9 |
| 20260507144405 | 24 | 261 | 11.3 | 24.1 | 0.00 | 0.00 | 0.00 | 23 | 1013.8 |
| 20260507144204 | 24 | 262 | 11.3 | 24.1 | 0.00 | 0.00 | 0.00 | 23 | 1014.0 |
| 20260507144004 | 24 | 250 | 9.7 | 24.1 | 0.00 | 0.00 | 0.00 | 23 | 1014.2 |
| 20260507143804 | 24 | 253 | 9.7 | 24.1 | 0.00 | 0.00 | 0.00 | 24 | 1013.9 |
| 20260507143604 | 24 | 255 | 9.7 | 24.1 | 0.00 | 0.00 | 0.00 | 23 | 1013.9 |
| 20260507143404 | 24 | 245 | 8.0 | 24.1 | 0.00 | 0.00 | 0.00 | 23 | 1013.8 |
| 20260507143204 | 25 | 231 | 8.0 | 19.3 | 0.00 | 0.00 | 0.00 | 24 | 1014.0 |
| 20260507143005 | 25 | 237 | 8.0 | 19.3 | 0.00 | 0.00 | 0.00 | 25 | 1014.1 |
| 20260507142804 | 25 | 236 | 8.0 | 22.5 | 0.00 | 0.00 | 0.00 | 25 | 1014.0 |
| 20260507142204 | 24 | 250 | 11.3 | 24.1 | 0.00 | 0.00 | 0.00 | 25 | 1013.8 |
| 20260507142004 | 24 | 244 | 11.3 | 24.1 | 0.00 | 0.00 | 0.00 | 25 | 1013.8 |
| 20260507141804 | 24 | 245 | 11.3 | 24.1 | 0.00 | 0.00 | 0.00 | 25 | 1014.0 |
| 20260507141604 | 24 | 239 | 9.7 | 24.1 | 0.00 | 0.00 | 0.00 | 25 | 1013.8 |
| 20260507141404 | 25 | 239 | 9.7 | 24.1 | 0.00 | 0.00 | 0.00 | 24 | 1013.8 |
| 20260507141205 | 25 | 227 | 9.7 | 24.1 | 0.00 | 0.00 | 0.00 | 23 | 1014.0 |
| 20260507141004 | 25 | 236 | 9.7 | 22.5 | 0.00 | 0.00 | 0.00 | 23 | 1013.9 |
| 20260507140804 | 25 | 234 | 9.7 | 22.5 | 0.00 | 0.00 | 0.00 | 23 | 1013.8 |
| 20260507140604 | 25 | 232 | 9.7 | 22.5 | 0.00 | 0.00 | 0.00 | 23 | 1013.6 |
| 20260507140404 | 25 | 242 | 11.3 | 22.5 | 0.00 | 0.00 | 0.00 | 22 | 1013.8 |
| 20260507140205 | 25 | 247 | 11.3 | 22.5 | 0.00 | 0.00 | 0.00 | 22 | 1013.4 |
| 20260507140006 | 25 | 256 | 9.7 | 22.5 | 0.00 | 0.00 | 0.00 | 21 | 1013.5 |
| 20260507135804 | 26 | 257 | 9.7 | 20.9 | 0.00 | 0.00 | 0.00 | 22 | 1013.6 |
| 20260507135605 | 25 | 262 | 9.7 | 24.1 | 0.00 | 0.00 | 0.00 | 22 | 1013.5 |
| 20260507135404 | 26 | 259 | 9.7 | 24.1 | 0.00 | 0.00 | 0.00 | 22 | 1013.4 |
| 20260507135205 | 25 | 264 | 9.7 | 24.1 | 0.00 | 0.00 | 0.00 | 21 | 1013.7 |
| 20260507135005 | 26 | 259 | 9.7 | 24.1 | 0.00 | 0.00 | 0.00 | 21 | 1013.5 |
| 20260507134804 | 26 | 258 | 9.7 | 24.1 | 0.00 | 0.00 | 0.00 | 21 | 1013.5 |
| 20260507134605 | 26 | 258 | 9.7 | 24.1 | 0.00 | 0.00 | 0.00 | 21 | 1013.5 |
| 20260507134404 | 25 | 255 | 9.7 | 20.9 | 0.00 | 0.00 | 0.00 | 22 | 1013.5 |
| 20260507134005 | 26 | 248 | 9.7 | 20.9 | 0.00 | 0.00 | 0.00 | 20 | 1013.5 |
| 20260507133804 | 26 | 244 | 8.0 | 19.3 | 0.00 | 0.00 | 0.00 | 20 | 1013.4 |
| 20260507133605 | 26 | 246 | 8.0 | 19.3 | 0.00 | 0.00 | 0.00 | 19 | 1013.6 |
| 20260507133204 | 26 | 248 | 8.0 | 19.3 | 0.00 | 0.00 | 0.00 | 21 | 1013.6 |
| 20260507133004 | 25 | 249 | 9.7 | 20.9 | 0.00 | 0.00 | 0.00 | 20 | 1013.3 |
| 20260507132808 | 25 | 251 | 9.7 | 20.9 | 0.00 | 0.00 | 0.00 | 21 | 1013.4 |
| 20260507132605 | 25 | 249 | 8.0 | 20.9 | 0.00 | 0.00 | 0.00 | 20 | 1013.6 |
| 20260507132404 | 25 | 250 | 9.7 | 20.9 | 0.00 | 0.00 | 0.00 | 19 | 1013.3 |
| 20260507132204 | 25 | 253 | 8.0 | 20.9 | 0.00 | 0.00 | 0.00 | 19 | 1013.4 |
| 20260507131804 | 25 | 259 | 8.0 | 16.1 | 0.00 | 0.00 | 0.00 | 20 | 1013.4 |
| 20260507131605 | 25 | 260 | 8.0 | 16.1 | 0.00 | 0.00 | 0.00 | 19 | 1013.4 |
| 20260507131404 | 25 | 256 | 8.0 | 16.1 | 0.00 | 0.00 | 0.00 | 18 | 1013.6 |
| 20260507131005 | 26 | 254 | 6.4 | 16.1 | 0.00 | 0.00 | 0.00 | 20 | 1013.4 |
| 20260507130804 | 25 | 250 | 4.8 | 16.1 | 0.00 | 0.00 | 0.00 | 23 | 1013.4 |
| 20260507130604 | 26 | 256 | 4.8 | 16.1 | 0.00 | 0.00 | 0.00 | 22 | 1013.7 |
| 20260507130205 | 25 | 257 | 4.8 | 12.9 | 0.00 | 0.00 | 0.00 | 25 | 1013.5 |
| 20260507130004 | 25 | 257 | 6.4 | 12.9 | 0.00 | 0.00 | 0.00 | 27 | 1013.7 |
| 20260507125804 | 25 | 259 | 6.4 | 14.5 | 0.00 | 0.00 | 0.00 | 27 | 1013.7 |
| 20260507125605 | 25 | 256 | 6.4 | 17.7 | 0.00 | 0.00 | 0.00 | 27 | 1013.9 |
| 20260507125404 | 24 | 253 | 8.0 | 17.7 | 0.00 | 0.00 | 0.00 | 25 | 1013.6 |
| 20260507125205 | 24 | 251 | 8.0 | 17.7 | 0.00 | 0.00 | 0.00 | 26 | 1013.8 |
| 20260507125004 | 24 | 251 | 8.0 | 17.7 | 0.00 | 0.00 | 0.00 | 27 | 1013.9 |
| 20260507124804 | 24 | 253 | 8.0 | 17.7 | 0.00 | 0.00 | 0.00 | 28 | 1014.0 |
| 20260507124604 | 24 | 257 | 8.0 | 17.7 | 0.00 | 0.00 | 0.00 | 27 | 1013.9 |
| 20260507124405 | 24 | 255 | 8.0 | 17.7 | 0.00 | 0.00 | 0.00 | 27 | 1014.1 |
| 20260507124204 | 24 | 256 | 8.0 | 17.7 | 0.00 | 0.00 | 0.00 | 27 | 1014.1 |
| 20260507124004 | 25 | 257 | 8.0 | 17.7 | 0.00 | 0.00 | 0.00 | 26 | 1014.0 |
| 20260507123404 | 25 | 248 | 8.0 | 17.7 | 0.00 | 0.00 | 0.00 | 24 | 1014.2 |
| 20260507123204 | 25 | 246 | 6.4 | 17.7 | 0.00 | 0.00 | 0.00 | 22 | 1014.1 |
| 20260507123004 | 25 | 239 | 6.4 | 17.7 | 0.00 | 0.00 | 0.00 | 26 | 1013.9 |
| 20260507122804 | 25 | 238 | 8.0 | 20.9 | 0.00 | 0.00 | 0.00 | 25 | 1013.9 |
| 20260507122604 | 25 | 244 | 8.0 | 20.9 | 0.00 | 0.00 | 0.00 | 25 | 1014.1 |
| 20260507122205 | 25 | 243 | 9.7 | 20.9 | 0.00 | 0.00 | 0.00 | 23 | 1014.1 |
| 20260507121604 | 25 | 252 | 9.7 | 22.5 | 0.00 | 0.00 | 0.00 | 22 | 1014.2 |
| 20260507121404 | 25 | 262 | 9.7 | 22.5 | 0.00 | 0.00 | 0.00 | 21 | 1014.2 |
| 20260507121204 | 25 | 258 | 9.7 | 27.4 | 0.00 | 0.00 | 0.00 | 22 | 1014.3 |
| 20260507121005 | 25 | 265 | 11.3 | 27.4 | 0.00 | 0.00 | 0.00 | 21 | 1014.1 |
| 20260507120804 | 25 | 275 | 11.3 | 27.4 | 0.00 | 0.00 | 0.00 | 20 | 1014.3 |
| 20260507120604 | 25 | 278 | 11.3 | 27.4 | 0.00 | 0.00 | 0.00 | 23 | 1014.0 |
| 20260507120204 | 25 | 273 | 11.3 | 27.4 | 0.00 | 0.00 | 0.00 | 20 | 1014.1 |
| 20260507115804 | 26 | 258 | 11.3 | 20.9 | 0.00 | 0.00 | 0.00 | 21 | 1014.2 |
| 20260507115604 | 26 | 257 | 11.3 | 20.9 | 0.00 | 0.00 | 0.00 | 22 | 1014.1 |
| 20260507115404 | 25 | 254 | 11.3 | 22.5 | 0.00 | 0.00 | 0.00 | 21 | 1014.2 |
| 20260507115205 | 25 | 257 | 11.3 | 22.5 | 0.00 | 0.00 | 0.00 | 18 | 1014.1 |
| 20260507114804 | 25 | 246 | 9.7 | 22.5 | 0.00 | 0.00 | 0.00 | 22 | 1014.2 |
| 20260507114604 | 26 | 253 | 9.7 | 22.5 | 0.00 | 0.00 | 0.00 | 21 | 1014.1 |
| 20260507114409 | 25 | 262 | 9.7 | 20.9 | 0.00 | 0.00 | 0.00 | 20 | 1014.1 |
| 20260507114204 | 26 | 255 | 8.0 | 20.9 | 0.00 | 0.00 | 0.00 | 23 | 1014.2 |
| 20260507114005 | 25 | 260 | 9.7 | 22.5 | 0.00 | 0.00 | 0.00 | 25 | 1014.3 |
| 20260507113804 | 25 | 252 | 9.7 | 24.1 | 0.00 | 0.00 | 0.00 | 27 | 1014.2 |
| 20260507113605 | 25 | 248 | 11.3 | 24.1 | 0.00 | 0.00 | 0.00 | 31 | 1014.1 |
| 20260507113404 | 25 | 255 | 12.9 | 27.4 | 0.00 | 0.00 | 0.00 | 32 | 1014.2 |
| 20260507113205 | 25 | 257 | 14.5 | 27.4 | 0.00 | 0.00 | 0.00 | 34 | 1014.4 |
| 20260507112804 | 25 | 265 | 14.5 | 27.4 | 0.00 | 0.00 | 0.00 | 36 | 1014.0 |
| 20260507112604 | 25 | 264 | 12.9 | 27.4 | 0.00 | 0.00 | 0.00 | 33 | 1014.4 |
| 20260507112405 | 25 | 263 | 12.9 | 27.4 | 0.00 | 0.00 | 0.00 | 31 | 1014.3 |
| 20260507112204 | 25 | 261 | 12.9 | 27.4 | 0.00 | 0.00 | 0.00 | 32 | 1014.3 |
| 20260507112004 | 25 | 261 | 12.9 | 27.4 | 0.00 | 0.00 | 0.00 | 32 | 1014.5 |
| 20260507111804 | 25 | 245 | 12.9 | 30.6 | 0.00 | 0.00 | 0.00 | 32 | 1014.4 |
| 20260507111604 | 26 | 242 | 12.9 | 30.6 | 0.00 | 0.00 | 0.00 | 32 | 1014.4 |
| 20260507111405 | 26 | 236 | 14.5 | 30.6 | 0.00 | 0.00 | 0.00 | 30 | 1014.2 |
| 20260507111204 | 26 | 236 | 12.9 | 30.6 | 0.00 | 0.00 | 0.00 | 26 | 1014.2 |
| 20260507111005 | 25 | 241 | 11.3 | 30.6 | 0.00 | 0.00 | 0.00 | 23 | 1013.9 |
| 20260507110804 | 26 | 258 | 9.7 | 27.4 | 0.00 | 0.00 | 0.00 | 27 | 1014.1 |
| 20260507110604 | 25 | 261 | 9.7 | 27.4 | 0.00 | 0.00 | 0.00 | 28 | 1014.0 |
| 20260507110404 | 26 | 260 | 8.0 | 27.4 | 0.00 | 0.00 | 0.00 | 32 | 1013.9 |
| 20260507110204 | 26 | 259 | 9.7 | 27.4 | 0.00 | 0.00 | 0.00 | 33 | 1013.9 |
| 20260507110005 | 26 | 259 | 9.7 | 27.4 | 0.00 | 0.00 | 0.00 | 30 | 1014.1 |
| 20260507105804 | 26 | 247 | 9.7 | 27.4 | 0.00 | 0.00 | 0.00 | 28 | 1014.1 |
| 20260507105404 | 25 | 265 | 9.7 | 27.4 | 0.00 | 0.00 | 0.00 | 26 | 1014.0 |
| 20260507105004 | 26 | 269 | 8.0 | 17.7 | 0.00 | 0.00 | 0.00 | 30 | 1014.3 |
| 20260507104804 | 26 | 270 | 9.7 | 22.5 | 0.00 | 0.00 | 0.00 | 29 | 1014.1 |
| 20260507104604 | 26 | 261 | 9.7 | 22.5 | 0.00 | 0.00 | 0.00 | 28 | 1014.1 |
| 20260507104405 | 26 | 255 | 9.7 | 22.5 | 0.00 | 0.00 | 0.00 | 31 | 1014.1 |
| 20260507104004 | 25 | 250 | 11.3 | 22.5 | 0.00 | 0.00 | 0.00 | 34 | 1014.1 |
| 20260507103804 | 25 | 244 | 8.0 | 22.5 | 0.00 | 0.00 | 0.00 | 35 | 1013.9 |
| 20260507103604 | 25 | 250 | 8.0 | 17.7 | 0.00 | 0.00 | 0.00 | 39 | 1014.0 |
| 20260507103404 | 25 | 242 | 6.4 | 17.7 | 0.00 | 0.00 | 0.00 | 38 | 1013.8 |
| 20260507103204 | 26 | 248 | 4.8 | 16.1 | 0.00 | 0.00 | 0.00 | 38 | 1013.8 |
| 20260507103004 | 26 | 238 | 4.8 | 16.1 | 0.00 | 0.00 | 0.00 | 34 | 1013.7 |
| 20260507102804 | 26 | 234 | 6.4 | 16.1 | 0.00 | 0.00 | 0.00 | 44 | 1013.7 |
| 20260507102604 | 25 | 248 | 6.4 | 16.1 | 0.00 | 0.00 | 0.00 | 43 | 1013.9 |
| 20260507102404 | 25 | 253 | 6.4 | 16.1 | 0.00 | 0.00 | 0.00 | 45 | 1013.9 |
| 20260507102204 | 25 | 222 | 6.4 | 16.1 | 0.00 | 0.00 | 0.00 | 47 | 1013.8 |
| 20260507101604 | 25 | 239 | 4.8 | 14.5 | 0.00 | 0.00 | 0.00 | 48 | 1013.9 |
| 20260507101404 | 25 | 227 | 6.4 | 17.7 | 0.00 | 0.00 | 0.00 | 49 | 1013.8 |
| 20260507101204 | 25 | 240 | 6.4 | 17.7 | 0.00 | 0.00 | 0.00 | 52 | 1014.0 |
| 20260507101004 | 25 | 240 | 8.0 | 17.7 | 0.00 | 0.00 | 0.00 | 51 | 1014.0 |
| 20260507100604 | 25 | 246 | 8.0 | 17.7 | 0.00 | 0.00 | 0.00 | 54 | 1013.9 |
| 20260507100404 | 25 | 255 | 8.0 | 17.7 | 0.00 | 0.00 | 0.00 | 52 | 1013.9 |
| 20260507100204 | 25 | 257 | 6.4 | 14.5 | 0.00 | 0.00 | 0.00 | 52 | 1014.0 |
| 20260507095804 | 25 | 254 | 6.4 | 16.1 | 0.00 | 0.00 | 0.00 | 54 | 1014.2 |
| 20260507095604 | 24 | 253 | 6.4 | 16.1 | 0.00 | 0.00 | 0.00 | 55 | 1014.1 |
| 20260507095404 | 25 | 253 | 6.4 | 16.1 | 0.00 | 0.00 | 0.00 | 55 | 1014.0 |
| 20260507095004 | 25 | 253 | 6.4 | 16.1 | 0.00 | 0.00 | 0.00 | 55 | 1014.2 |
| 20260507094804 | 25 | 250 | 6.4 | 14.5 | 0.00 | 0.00 | 0.00 | 54 | 1013.9 |
| 20260507094604 | 25 | 248 | 6.4 | 16.1 | 0.00 | 0.00 | 0.00 | 54 | 1014.2 |
| 20260507094405 | 25 | 245 | 8.0 | 19.3 | 0.00 | 0.00 | 0.00 | 52 | 1013.9 |
| 20260507094205 | 25 | 243 | 8.0 | 19.3 | 0.00 | 0.00 | 0.00 | 51 | 1014.1 |
| 20260507094004 | 25 | 246 | 8.0 | 19.3 | 0.00 | 0.00 | 0.00 | 52 | 1013.8 |
| 20260507093804 | 25 | 249 | 8.0 | 19.3 | 0.00 | 0.00 | 0.00 | 52 | 1013.9 |
| 20260507093605 | 25 | 252 | 8.0 | 19.3 | 0.00 | 0.00 | 0.00 | 51 | 1013.9 |
| 20260507093404 | 25 | 258 | 6.4 | 16.1 | 0.00 | 0.00 | 0.00 | 50 | 1014.0 |
| 20260507093005 | 25 | 238 | 6.4 | 17.7 | 0.00 | 0.00 | 0.00 | 47 | 1014.0 |
| 20260507092804 | 25 | 230 | 6.4 | 17.7 | 0.00 | 0.00 | 0.00 | 46 | 1013.8 |
| 20260507092404 | 25 | 236 | 4.8 | 17.7 | 0.00 | 0.00 | 0.00 | 45 | 1014.0 |
| 20260507092005 | 25 | 273 | 4.8 | 11.3 | 0.00 | 0.00 | 0.00 | 45 | 1014.0 |
| 20260507091604 | 25 | 276 | 4.8 | 11.3 | 0.00 | 0.00 | 0.00 | 45 | 1013.9 |
| 20260507091204 | 25 | 267 | 4.8 | 11.3 | 0.00 | 0.00 | 0.00 | 45 | 1014.0 |
| 20260507091004 | 25 | 261 | 4.8 | 11.3 | 0.00 | 0.00 | 0.00 | 45 | 1013.9 |
| 20260507090805 | 25 | 243 | 4.8 | 12.9 | 0.00 | 0.00 | 0.00 | 45 | 1014.2 |
| 20260507090604 | 25 | 251 | 4.8 | 12.9 | 0.00 | 0.00 | 0.00 | 45 | 1014.0 |
| 20260507090404 | 25 | 247 | 4.8 | 12.9 | 0.00 | 0.00 | 0.00 | 45 | 1014.1 |
| 20260507090005 | 25 | 241 | 4.8 | 12.9 | 0.00 | 0.00 | 0.00 | 44 | 1014.0 |
| 20260507085804 | 25 | 231 | 3.2 | 12.9 | 0.00 | 0.00 | 0.00 | 44 | 1014.0 |
| 20260507085604 | 25 | 227 | 3.2 | 11.3 | 0.00 | 0.00 | 0.00 | 43 | 1013.9 |
| 20260507085404 | 25 | 223 | 3.2 | 11.3 | 0.00 | 0.00 | 0.00 | 43 | 1014.2 |
| 20260507085204 | 25 | 223 | 4.8 | 9.7 | 0.00 | 0.00 | 0.00 | 42 | 1014.0 |
| 20260507085004 | 25 | 226 | 3.2 | 9.7 | 0.00 | 0.00 | 0.00 | 42 | 1014.0 |
| 20260507084605 | 25 | 217 | 3.2 | 9.7 | 0.00 | 0.00 | 0.00 | 40 | 1014.3 |
| 20260507084404 | 26 | 217 | 1.6 | 9.7 | 0.00 | 0.00 | 0.00 | 40 | 1014.4 |
| 20260507084204 | 26 | 216 | 1.6 | 9.7 | 0.00 | 0.00 | 0.00 | 41 | 1014.4 |
| 20260507084005 | 25 | 216 | 1.6 | 9.7 | 0.00 | 0.00 | 0.00 | 42 | 1014.3 |
| 20260507083804 | 25 | 229 | 3.2 | 9.7 | 0.00 | 0.00 | 0.00 | 41 | 1014.2 |
| 20260507083605 | 25 | 233 | 3.2 | 9.7 | 0.00 | 0.00 | 0.00 | 42 | 1014.4 |
| 20260507083404 | 25 | 236 | 1.6 | 9.7 | 0.00 | 0.00 | 0.00 | 41 | 1014.2 |
| 20260507083204 | 25 | 247 | 1.6 | 9.7 | 0.00 | 0.00 | 0.00 | 41 | 1014.2 |
| 20260507083005 | 25 | 252 | 1.6 | 9.7 | 0.00 | 0.00 | 0.00 | 41 | 1014.5 |
| 20260507082804 | 25 | 229 | 1.6 | 8.0 | 0.00 | 0.00 | 0.00 | 42 | 1014.3 |
| 20260507082604 | 25 | 229 | 1.6 | 9.7 | 0.00 | 0.00 | 0.00 | 43 | 1014.2 |
| 20260507082404 | 25 | 242 | 3.2 | 11.3 | 0.00 | 0.00 | 0.00 | 44 | 1014.1 |
| 20260507082004 | 23 | 245 | 4.8 | 16.1 | 0.00 | 0.00 | 0.00 | 45 | 1014.1 |
| 20260507081805 | 23 | 252 | 6.4 | 16.1 | 0.00 | 0.00 | 0.00 | 45 | 1014.1 |
| 20260507081604 | 23 | 252 | 6.4 | 16.1 | 0.00 | 0.00 | 0.00 | 45 | 1014.1 |
| 20260507081405 | 23 | 248 | 6.4 | 16.1 | 0.00 | 0.00 | 0.00 | 45 | 1014.1 |
| 20260507081204 | 23 | 246 | 6.4 | 16.1 | 0.00 | 0.00 | 0.00 | 45 | 1014.3 |
| 20260507081005 | 23 | 246 | 6.4 | 12.9 | 0.00 | 0.00 | 0.00 | 44 | 1014.2 |
| 20260507080804 | 23 | 246 | 4.8 | 12.9 | 0.00 | 0.00 | 0.00 | 44 | 1014.1 |
| 20260507080605 | 24 | 246 | 4.8 | 12.9 | 0.00 | 0.00 | 0.00 | 43 | 1014.3 |
| 20260507080404 | 24 | 246 | 6.4 | 12.9 | 0.00 | 0.00 | 0.00 | 43 | 1014.1 |
| 20260507080005 | 24 | 256 | 4.8 | 12.9 | 0.00 | 0.00 | 0.00 | 43 | 1014.3 |
| 20260507075604 | 25 | 258 | 3.2 | 11.3 | 0.00 | 0.00 | 0.00 | 42 | 1014.2 |
| 20260507075404 | 25 | 290 | 3.2 | 8.0 | 0.00 | 0.00 | 0.00 | 42 | 1014.3 |
| 20260507075205 | 25 | 281 | 3.2 | 11.3 | 0.00 | 0.00 | 0.00 | 41 | 1014.1 |
| 20260507075004 | 25 | 268 | 3.2 | 11.3 | 0.00 | 0.00 | 0.00 | 42 | 1014.2 |
| 20260507074804 | 25 | 273 | 3.2 | 11.3 | 0.00 | 0.00 | 0.00 | 42 | 1013.9 |
| 20260507074604 | 25 | 281 | 3.2 | 11.3 | 0.00 | 0.00 | 0.00 | 42 | 1014.2 |
| 20260507074404 | 25 | 279 | 4.8 | 11.3 | 0.00 | 0.00 | 0.00 | 41 | 1014.0 |
| 20260507074204 | 25 | 266 | 3.2 | 11.3 | 0.00 | 0.00 | 0.00 | 42 | 1013.9 |
| 20260507074004 | 25 | 278 | 3.2 | 9.7 | 0.00 | 0.00 | 0.00 | 40 | 1014.1 |
| 20260507073804 | 25 | 273 | 3.2 | 9.7 | 0.00 | 0.00 | 0.00 | 41 | 1014.0 |
| 20260507073604 | 25 | 253 | 3.2 | 9.7 | 0.00 | 0.00 | 0.00 | 40 | 1014.0 |
| 20260507073404 | 25 | 227 | 1.6 | 8.0 | 0.00 | 0.00 | 0.00 | 40 | 1013.9 |
| 20260507073204 | 24 | 226 | 1.6 | 8.0 | 0.00 | 0.00 | 0.00 | 40 | 1013.9 |
| 20260507073004 | 25 | 202 | 1.6 | 6.4 | 0.00 | 0.00 | 0.00 | 42 | 1013.7 |
| 20260507072604 | 25 | 202 | 1.6 | 9.7 | 0.00 | 0.00 | 0.00 | 42 | 1013.8 |
| 20260507072405 | 24 | 215 | 3.2 | 9.7 | 0.00 | 0.00 | 0.00 | 44 | 1013.6 |
| 20260507072204 | 23 | 216 | 3.2 | 9.7 | 0.00 | 0.00 | 0.00 | 43 | 1013.7 |
| 20260507071805 | 23 | 229 | 1.6 | 9.7 | 0.00 | 0.00 | 0.00 | 43 | 1013.7 |
| 20260507071404 | 23 | 240 | 3.2 | 9.7 | 0.00 | 0.00 | 0.00 | 46 | 1013.9 |
| 20260507071204 | 23 | 244 | 3.2 | 9.7 | 0.00 | 0.00 | 0.00 | 46 | 1014.0 |
| 20260507071004 | 23 | 246 | 3.2 | 9.7 | 0.00 | 0.00 | 0.00 | 46 | 1014.0 |
| 20260507070604 | 23 | 216 | 1.6 | 9.7 | 0.00 | 0.00 | 0.00 | 44 | 1014.2 |
| 20260507070404 | 24 | 197 | 1.6 | 8.0 | 0.00 | 0.00 | 0.00 | 46 | 1014.2 |
| 20260507070205 | 24 | 199 | 1.6 | 8.0 | 0.00 | 0.00 | 0.00 | 46 | 1014.3 |
| 20260507070009 | 23 | 207 | 1.6 | 8.0 | 0.00 | 0.00 | 0.00 | 46 | 1014.3 |
| 20260507065405 | 23 | 230 | 1.6 | 8.0 | 0.00 | 0.00 | 0.00 | 46 | 1014.3 |
| 20260507065004 | 23 | 241 | 1.6 | 6.4 | 0.00 | 0.00 | 0.00 | 46 | 1014.2 |
| 20260507064805 | 23 | 247 | 1.6 | 12.9 | 0.00 | 0.00 | 0.00 | 46 | 1014.1 |
| 20260507064604 | 23 | 240 | 3.2 | 12.9 | 0.00 | 0.00 | 0.00 | 47 | 1014.2 |
| 20260507064404 | 22 | 225 | 3.2 | 12.9 | 0.00 | 0.00 | 0.00 | 49 | 1014.0 |
| 20260507064204 | 22 | 227 | 4.8 | 12.9 | 0.00 | 0.00 | 0.00 | 48 | 1014.2 |
| 20260507064004 | 22 | 222 | 3.2 | 12.9 | 0.00 | 0.00 | 0.00 | 47 | 1014.0 |
| 20260507063804 | 22 | 208 | 3.2 | 12.9 | 0.00 | 0.00 | 0.00 | 47 | 1014.0 |
| 20260507063604 | 22 | 212 | 3.2 | 12.9 | 0.00 | 0.00 | 0.00 | 47 | 1014.1 |
| 20260507063404 | 22 | 234 | 4.8 | 14.5 | 0.00 | 0.00 | 0.00 | 46 | 1014.0 |
| 20260507063004 | 22 | 241 | 6.4 | 14.5 | 0.00 | 0.00 | 0.00 | 48 | 1014.1 |
| 20260507062804 | 21 | 247 | 8.0 | 14.5 | 0.00 | 0.00 | 0.00 | 48 | 1013.8 |
| 20260507062604 | 21 | 247 | 8.0 | 17.7 | 0.00 | 0.00 | 0.00 | 47 | 1014.0 |
| 20260507062205 | 21 | 229 | 8.0 | 17.7 | 0.00 | 0.00 | 0.00 | 47 | 1013.8 |
| 20260507061804 | 21 | 230 | 6.4 | 17.7 | 0.00 | 0.00 | 0.00 | 47 | 1014.0 |
| 20260507061604 | 21 | 236 | 6.4 | 16.1 | 0.00 | 0.00 | 0.00 | 49 | 1013.8 |
| 20260507061404 | 21 | 242 | 6.4 | 16.1 | 0.00 | 0.00 | 0.00 | 50 | 1013.8 |
| 20260507061204 | 22 | 237 | 4.8 | 14.5 | 0.00 | 0.00 | 0.00 | 49 | 1013.8 |
| 20260507061004 | 22 | 234 | 4.8 | 11.3 | 0.00 | 0.00 | 0.00 | 51 | 1014.0 |
| 20260507060804 | 22 | 233 | 4.8 | 11.3 | 0.00 | 0.00 | 0.00 | 52 | 1013.7 |
| 20260507060605 | 22 | 225 | 4.8 | 11.3 | 0.00 | 0.00 | 0.00 | 52 | 1013.7 |
| 20260507060205 | 22 | 242 | 4.8 | 9.7 | 0.00 | 0.00 | 0.00 | 52 | 1013.5 |
| 20260507060004 | 22 | 242 | 4.8 | 9.7 | 0.00 | 0.00 | 0.00 | 51 | 1013.8 |
| 20260507055604 | 22 | 241 | 3.2 | 6.4 | 0.00 | 0.00 | 0.00 | 50 | 1013.6 |
| 20260507055404 | 22 | 239 | 3.2 | 6.4 | 0.00 | 0.00 | 0.00 | 49 | 1013.7 |
| 20260507055205 | 22 | 245 | 1.6 | 6.4 | 0.00 | 0.00 | 0.00 | 49 | 1013.4 |
| 20260507055004 | 23 | 243 | 1.6 | 4.8 | 0.00 | 0.00 | 0.00 | 48 | 1013.6 |
| 20260507054805 | 23 | 250 | 0.0 | 4.8 | 0.00 | 0.00 | 0.00 | 48 | 1013.5 |
| 20260507054604 | 23 | 244 | 0.0 | 3.2 | 0.00 | 0.00 | 0.00 | 50 | 1013.3 |
| 20260507054404 | 23 | 238 | 0.0 | 3.2 | 0.00 | 0.00 | 0.00 | 50 | 1013.3 |
| 20260507054204 | 23 | 166 | 0.0 | 3.2 | 0.00 | 0.00 | 0.00 | 50 | 1013.3 |
| 20260507054004 | 23 | 102 | 0.0 | 6.4 | 0.00 | 0.00 | 0.00 | 52 | 1013.1 |
| 20260507053804 | 22 | 116 | 0.0 | 6.4 | 0.00 | 0.00 | 0.00 | 53 | 1013.3 |
| 20260507053604 | 22 | 94 | 1.6 | 6.4 | 0.00 | 0.00 | 0.00 | 52 | 1013.1 |
| 20260507053404 | 22 | 93 | 1.6 | 6.4 | 0.00 | 0.00 | 0.00 | 52 | 1013.2 |
| 20260507053204 | 21 | 82 | 1.6 | 6.4 | 0.00 | 0.00 | 0.00 | 51 | 1013.2 |
| 20260507053005 | 22 | 81 | 1.6 | 6.4 | 0.00 | 0.00 | 0.00 | 51 | 1013.4 |
| 20260507052604 | 22 | 75 | 0.0 | 4.8 | 0.00 | 0.00 | 0.00 | 50 | 1013.2 |
| 20260507052404 | 22 | 80 | 0.0 | 4.8 | 0.00 | 0.00 | 0.00 | 51 | 1013.1 |
| 20260507052204 | 22 | 94 | 0.0 | 3.2 | 0.00 | 0.00 | 0.00 | 52 | 1013.1 |
| 20260507052004 | 22 | 115 | 0.0 | 3.2 | 0.00 | 0.00 | 0.00 | 54 | 1013.0 |
| 20260507051805 | 21 | 84 | 0.0 | 3.2 | 0.00 | 0.00 | 0.00 | 57 | 1012.9 |
| 20260507051604 | 21 | 81 | 0.0 | 3.2 | 0.00 | 0.00 | 0.00 | 60 | 1013.0 |
| 20260507051204 | 21 | 80 | 0.0 | 3.2 | 0.00 | 0.00 | 0.00 | 64 | 1013.3 |
| 20260507051004 | 20 | 76 | 0.0 | 3.2 | 0.00 | 0.00 | 0.00 | 66 | 1013.1 |
| 20260507050804 | 20 | 131 | 0.0 | 3.2 | 0.00 | 0.00 | 0.00 | 71 | 1013.2 |
| 20260507050404 | 18 | 71 | 0.0 | 3.2 | 0.00 | 0.00 | 0.00 | 74 | 1013.2 |
| 20260507050205 | 18 | 74 | 0.0 | 3.2 | 0.00 | 0.00 | 0.00 | 74 | 1013.1 |
| 20260507045804 | 17 | 76 | 0.0 | 3.2 | 0.00 | 0.00 | 0.00 | 73 | 1013.0 |
| 20260507045604 | 17 | 87 | 0.0 | 3.2 | 0.00 | 0.00 | 0.00 | 73 | 1013.3 |
| 20260507045404 | 17 | 140 | 0.0 | 3.2 | 0.00 | 0.00 | 0.00 | 74 | 1013.4 |
| 20260507045204 | 17 | 149 | 0.0 | 3.2 | 0.00 | 0.00 | 0.00 | 75 | 1013.1 |
| 20260507045004 | 17 | 148 | 0.0 | 3.2 | 0.00 | 0.00 | 0.00 | 75 | 1013.2 |
| 20260507044804 | 16 | 148 | 0.0 | 3.2 | 0.00 | 0.00 | 0.00 | 75 | 1012.9 |
| 20260507044604 | 16 | 149 | 0.0 | 3.2 | 0.00 | 0.00 | 0.00 | 75 | 1013.0 |
| 20260507044404 | 16 | 142 | 0.0 | 3.2 | 0.00 | 0.00 | 0.00 | 76 | 1013.3 |
| 20260507044204 | 16 | 135 | 0.0 | 3.2 | 0.00 | 0.00 | 0.00 | 76 | 1013.1 |
| 20260507043804 | 16 | 135 | 0.0 | 3.2 | 0.00 | 0.00 | 0.00 | 76 | 1012.9 |
| 20260507043604 | 16 | 135 | 0.0 | 4.8 | 0.00 | 0.00 | 0.00 | 76 | 1013.2 |
| 20260507043404 | 16 | 135 | 0.0 | 4.8 | 0.00 | 0.00 | 0.00 | 76 | 1013.1 |
| 20260507043204 | 16 | 135 | 0.0 | 4.8 | 0.00 | 0.00 | 0.00 | 76 | 1013.3 |
| 20260507043004 | 15 | 135 | 0.0 | 4.8 | 0.00 | 0.00 | 0.00 | 76 | 1012.9 |
| 20260507042804 | 15 | 135 | 0.0 | 4.8 | 0.00 | 0.00 | 0.00 | 76 | 1013.0 |
| 20260507042604 | 15 | 135 | 0.0 | 4.8 | 0.00 | 0.00 | 0.00 | 76 | 1013.1 |
| 20260507042404 | 15 | 135 | 0.0 | 3.2 | 0.00 | 0.00 | 0.00 | 76 | 1013.4 |
| 20260507042004 | 15 | 135 | 0.0 | 1.6 | 0.00 | 0.00 | 0.00 | 76 | 1013.1 |
| 20260507041804 | 15 | 135 | 0.0 | 1.6 | 0.00 | 0.00 | 0.00 | 76 | 1013.1 |
| 20260507041604 | 15 | 135 | 0.0 | 1.6 | 0.00 | 0.00 | 0.00 | 76 | 1013.2 |
| 20260507041404 | 15 | 135 | 0.0 | 1.6 | 0.00 | 0.00 | 0.00 | 76 | 1013.4 |
| 20260507041204 | 15 | 135 | 0.0 | 1.6 | 0.00 | 0.00 | 0.00 | 76 | 1013.3 |
| 20260507041004 | 14 | 135 | 0.0 | 1.6 | 0.00 | 0.00 | 0.00 | 76 | 1013.3 |
| 20260507040804 | 15 | 135 | 0.0 | 1.6 | 0.00 | 0.00 | 0.00 | 76 | 1013.1 |
| 20260507040404 | 15 | 135 | 0.0 | 3.2 | 0.00 | 0.00 | 0.00 | 76 | 1013.2 |
| 20260507040005 | 14 | 142 | 0.0 | 3.2 | 0.00 | 0.00 | 0.00 | 77 | 1013.1 |
| 20260507035804 | 14 | 142 | 0.0 | 3.2 | 0.00 | 0.00 | 0.00 | 77 | 1013.1 |
| 20260507035604 | 14 | 144 | 0.0 | 3.2 | 0.00 | 0.00 | 0.00 | 77 | 1013.1 |
| 20260507035404 | 14 | 150 | 0.0 | 3.2 | 0.00 | 0.00 | 0.00 | 77 | 1013.1 |
| 20260507035204 | 13 | 158 | 0.0 | 3.2 | 0.00 | 0.00 | 0.00 | 76 | 1013.6 |
| 20260507034804 | 14 | 135 | 0.0 | 1.6 | 0.00 | 0.00 | 0.00 | 76 | 1013.3 |
| 20260507034604 | 13 | 135 | 0.0 | 1.6 | 0.00 | 0.00 | 0.00 | 76 | 1013.3 |
| 20260507034404 | 13 | 135 | 0.0 | 1.6 | 0.00 | 0.00 | 0.00 | 76 | 1013.4 |
| 20260507034204 | 13 | 135 | 0.0 | 1.6 | 0.00 | 0.00 | 0.00 | 76 | 1013.2 |
| 20260507034004 | 13 | 0 | 0.0 | 0.0 | 0.00 | 0.00 | 0.00 | 76 | 1013.2 |
| 20260507033804 | 13 | 0 | 0.0 | 0.0 | 0.00 | 0.00 | 0.00 | 75 | 1013.3 |
| 20260507033404 | 13 | 0 | 0.0 | 0.0 | 0.00 | 0.00 | 0.00 | 75 | 1013.2 |
| 20260507033204 | 13 | 0 | 0.0 | 0.0 | 0.00 | 0.00 | 0.00 | 75 | 1013.2 |
| 20260507033004 | 13 | 0 | 0.0 | 0.0 | 0.00 | 0.00 | 0.00 | 75 | 1013.0 |
| 20260507032804 | 13 | 0 | 0.0 | 0.0 | 0.00 | 0.00 | 0.00 | 74 | 1013.0 |
| 20260507032604 | 14 | 0 | 0.0 | 0.0 | 0.00 | 0.00 | 0.00 | 74 | 1013.0 |
| 20260507032404 | 14 | 0 | 0.0 | 0.0 | 0.00 | 0.00 | 0.00 | 74 | 1012.9 |
| 20260507032004 | 14 | 135 | 0.0 | 1.6 | 0.00 | 0.00 | 0.00 | 73 | 1013.2 |
| 20260507031604 | 14 | 135 | 0.0 | 3.2 | 0.00 | 0.00 | 0.00 | 73 | 1013.0 |
| 20260507031404 | 14 | 135 | 0.0 | 3.2 | 0.00 | 0.00 | 0.00 | 73 | 1012.7 |
| 20260507031204 | 14 | 135 | 0.0 | 3.2 | 0.00 | 0.00 | 0.00 | 73 | 1012.8 |
| 20260507031005 | 15 | 135 | 0.0 | 3.2 | 0.00 | 0.00 | 0.00 | 73 | 1013.0 |
| 20260507030804 | 15 | 135 | 0.0 | 3.2 | 0.00 | 0.00 | 0.00 | 74 | 1013.0 |
| 20260507030604 | 15 | 135 | 0.0 | 3.2 | 0.00 | 0.00 | 0.00 | 73 | 1013.1 |
| 20260507030404 | 15 | 135 | 0.0 | 3.2 | 0.00 | 0.00 | 0.00 | 72 | 1013.0 |
| 20260507030204 | 15 | 135 | 0.0 | 1.6 | 0.00 | 0.00 | 0.00 | 72 | 1012.8 |
| 20260507030005 | 15 | 135 | 0.0 | 1.6 | 0.00 | 0.00 | 0.00 | 72 | 1013.0 |
| 20260507025804 | 15 | 135 | 0.0 | 3.2 | 0.00 | 0.00 | 0.00 | 72 | 1012.7 |
| 20260507025604 | 15 | 127 | 0.0 | 3.2 | 0.00 | 0.00 | 0.00 | 72 | 1012.9 |
| 20260507025405 | 15 | 115 | 0.0 | 3.2 | 0.00 | 0.00 | 0.00 | 72 | 1012.8 |
| 20260507025204 | 15 | 111 | 0.0 | 3.2 | 0.00 | 0.00 | 0.00 | 72 | 1012.8 |
| 20260507025004 | 15 | 107 | 0.0 | 3.2 | 0.00 | 0.00 | 0.00 | 72 | 1012.8 |
| 20260507024805 | 15 | 95 | 0.0 | 3.2 | 0.00 | 0.00 | 0.00 | 72 | 1012.9 |
| 20260507024604 | 15 | 106 | 0.0 | 3.2 | 0.00 | 0.00 | 0.00 | 72 | 1012.8 |
| 20260507024405 | 15 | 135 | 0.0 | 4.8 | 0.00 | 0.00 | 0.00 | 70 | 1012.8 |
| 20260507024204 | 15 | 140 | 0.0 | 4.8 | 0.00 | 0.00 | 0.00 | 70 | 1012.8 |
| 20260507024004 | 15 | 142 | 0.0 | 4.8 | 0.00 | 0.00 | 0.00 | 70 | 1012.7 |
| 20260507023805 | 15 | 142 | 0.0 | 4.8 | 0.00 | 0.00 | 0.00 | 70 | 1012.9 |
| 20260507023604 | 15 | 156 | 0.0 | 4.8 | 0.00 | 0.00 | 0.00 | 70 | 1012.8 |
| 20260507023404 | 16 | 199 | 1.6 | 6.4 | 0.00 | 0.00 | 0.00 | 70 | 1012.8 |
| 20260507023205 | 16 | 197 | 1.6 | 6.4 | 0.00 | 0.00 | 0.00 | 69 | 1012.8 |
| 20260507022805 | 16 | 214 | 1.6 | 6.4 | 0.00 | 0.00 | 0.00 | 70 | 1012.8 |
| 20260507022604 | 16 | 219 | 1.6 | 6.4 | 0.00 | 0.00 | 0.00 | 70 | 1012.6 |
| 20260507022404 | 16 | 207 | 1.6 | 4.8 | 0.00 | 0.00 | 0.00 | 69 | 1012.8 |
| 20260507021805 | 16 | 248 | 0.0 | 3.2 | 0.00 | 0.00 | 0.00 | 68 | 1012.8 |
| 20260507021604 | 16 | 225 | 1.6 | 6.4 | 0.00 | 0.00 | 0.00 | 68 | 1012.9 |
| 20260507021404 | 16 | 206 | 1.6 | 6.4 | 0.00 | 0.00 | 0.00 | 68 | 1012.7 |
| 20260507021205 | 16 | 196 | 1.6 | 6.4 | 0.00 | 0.00 | 0.00 | 67 | 1012.7 |
| 20260507021004 | 16 | 189 | 1.6 | 6.4 | 0.00 | 0.00 | 0.00 | 67 | 1012.6 |
| 20260507020804 | 16 | 188 | 1.6 | 6.4 | 0.00 | 0.00 | 0.00 | 67 | 1012.8 |
| 20260507020604 | 16 | 199 | 3.2 | 8.0 | 0.00 | 0.00 | 0.00 | 66 | 1012.4 |
| 20260507020404 | 16 | 214 | 3.2 | 8.0 | 0.00 | 0.00 | 0.00 | 66 | 1012.8 |
| 20260507020205 | 16 | 218 | 1.6 | 8.0 | 0.00 | 0.00 | 0.00 | 66 | 1012.8 |
| 20260507020004 | 16 | 220 | 1.6 | 8.0 | 0.00 | 0.00 | 0.00 | 66 | 1012.7 |
| 20260507015804 | 16 | 214 | 3.2 | 8.0 | 0.00 | 0.00 | 0.00 | 66 | 1012.8 |
| 20260507015605 | 16 | 200 | 1.6 | 6.4 | 0.00 | 0.00 | 0.00 | 66 | 1012.7 |
| 20260507015404 | 16 | 193 | 1.6 | 6.4 | 0.00 | 0.00 | 0.00 | 67 | 1012.8 |
| 20260507015005 | 16 | 204 | 1.6 | 6.4 | 0.00 | 0.00 | 0.00 | 67 | 1012.7 |
| 20260507014604 | 16 | 218 | 1.6 | 6.4 | 0.00 | 0.00 | 0.00 | 66 | 1012.7 |
| 20260507014405 | 16 | 216 | 1.6 | 6.4 | 0.00 | 0.00 | 0.00 | 67 | 1012.7 |
| 20260507014204 | 16 | 222 | 1.6 | 6.4 | 0.00 | 0.00 | 0.00 | 67 | 1012.8 |
| 20260507014004 | 16 | 211 | 1.6 | 6.4 | 0.00 | 0.00 | 0.00 | 67 | 1012.8 |
| 20260507013805 | 16 | 203 | 1.6 | 6.4 | 0.00 | 0.00 | 0.00 | 66 | 1012.6 |
| 20260507013404 | 16 | 215 | 3.2 | 6.4 | 0.00 | 0.00 | 0.00 | 67 | 1012.6 |
| 20260507013005 | 16 | 215 | 1.6 | 6.4 | 0.00 | 0.00 | 0.00 | 67 | 1012.6 |
| 20260507012804 | 16 | 224 | 1.6 | 6.4 | 0.00 | 0.00 | 0.00 | 67 | 1012.5 |
| 20260507012604 | 16 | 222 | 1.6 | 6.4 | 0.00 | 0.00 | 0.00 | 68 | 1012.5 |
| 20260507012404 | 16 | 223 | 1.6 | 4.8 | 0.00 | 0.00 | 0.00 | 68 | 1012.4 |
| 20260507012204 | 16 | 233 | 1.6 | 4.8 | 0.00 | 0.00 | 0.00 | 68 | 1012.4 |
| 20260507012004 | 16 | 221 | 1.6 | 4.8 | 0.00 | 0.00 | 0.00 | 68 | 1012.2 |
| 20260507011804 | 16 | 208 | 1.6 | 4.8 | 0.00 | 0.00 | 0.00 | 68 | 1012.2 |
| 20260507011605 | 16 | 208 | 1.6 | 3.2 | 0.00 | 0.00 | 0.00 | 68 | 1012.2 |
| 20260507011405 | 16 | 211 | 1.6 | 3.2 | 0.00 | 0.00 | 0.00 | 68 | 1011.9 |
| 20260507011004 | 16 | 232 | 1.6 | 3.2 | 0.00 | 0.00 | 0.00 | 68 | 1011.9 |
| 20260507010804 | 16 | 240 | 1.6 | 6.4 | 0.00 | 0.00 | 0.00 | 68 | 1012.0 |
| 20260507010404 | 15 | 218 | 1.6 | 6.4 | 0.00 | 0.00 | 0.00 | 69 | 1012.2 |
| 20260507010204 | 15 | 209 | 3.2 | 6.4 | 0.00 | 0.00 | 0.00 | 69 | 1012.0 |
| 20260507010004 | 15 | 199 | 3.2 | 6.4 | 0.00 | 0.00 | 0.00 | 69 | 1011.9 |
| 20260507005805 | 15 | 192 | 1.6 | 6.4 | 0.00 | 0.00 | 0.00 | 69 | 1012.0 |
| 20260507005604 | 15 | 190 | 1.6 | 6.4 | 0.00 | 0.00 | 0.00 | 69 | 1012.0 |
| 20260507005404 | 15 | 186 | 1.6 | 6.4 | 0.00 | 0.00 | 0.00 | 69 | 1011.9 |
| 20260507004805 | 15 | 181 | 0.0 | 3.2 | 0.00 | 0.00 | 0.00 | 68 | 1012.0 |
| 20260507004604 | 15 | 181 | 0.0 | 3.2 | 0.00 | 0.00 | 0.00 | 69 | 1012.0 |
| 20260507004404 | 15 | 181 | 0.0 | 3.2 | 0.00 | 0.00 | 0.00 | 68 | 1012.0 |
| 20260507004205 | 15 | 181 | 0.0 | 3.2 | 0.00 | 0.00 | 0.00 | 68 | 1012.0 |
| 20260507004004 | 15 | 181 | 0.0 | 3.2 | 0.00 | 0.00 | 0.00 | 68 | 1012.0 |
| 20260507003804 | 15 | 181 | 0.0 | 3.2 | 0.00 | 0.00 | 0.00 | 68 | 1012.0 |